• In Hungary
  • List of Countries
  • For 7 days
  • Water Temperature
  • Satellite Maps
  • Weather Map
  • News
  • Weather Widgets
  • user-avatar
    Login

    Hourly Weather Kelcy

    Today, 21 June, Thursday

    Time Temperature Precipitation Wind Pressure Humidity
    00:00 +14°C° 0 mm 3 mps 748 mmHg 71%
    01:00 +13°C° 0 mm 3 mps 748 mmHg 73%
    02:00 +14°C° 0 mm 2 mps 748 mmHg 75%
    03:00 +12°C° 0 mm 1 mps 748 mmHg 80%
    04:00 +13°C° 0 mm 2 mps 748 mmHg 77%
    05:00 +13°C° 0 mm 3 mps 748 mmHg 74%
    06:00 +14°C° 0 mm 3 mps 749 mmHg 72%
    07:00 +17°C° 0 mm 4 mps 749 mmHg 64%
    08:00 +19°C° 0 mm 5 mps 749 mmHg 57%
    09:00 +21°C° 0 mm 5 mps 749 mmHg 50%
    10:00 +22°C° 0 mm 6 mps 748 mmHg 49%
    11:00 +22°C° 0 mm 6 mps 748 mmHg 48%
    12:00 +23°C° 0 mm 6 mps 748 mmHg 47%
    13:00 +24°C° 0 mm 6 mps 748 mmHg 49%
    14:00 +24°C° 0 mm 6 mps 748 mmHg 50%
    15:00 +25°C° 0 mm 5 mps 748 mmHg 51%
    16:00 +25°C° 0 mm 5 mps 748 mmHg 54%
    17:00 +25°C° 0 mm 4 mps 748 mmHg 56%
    18:00 +25°C° 0 mm 4 mps 748 mmHg 59%
    19:00 +22°C° 0 mm 3 mps 748 mmHg 66%
    20:00 +21°C° 0 mm 3 mps 748 mmHg 73%
    21:00 +19°C° 0 mm 2 mps 748 mmHg 80%
    22:00 +18°C° 0 mm 2 mps 749 mmHg 83%
    23:00 +18°C° 0 mm 2 mps 749 mmHg 86%

    Tomorrow, 22 June, Friday

    Time Temperature Precipitation Wind Pressure Humidity
    00:00 +17°C° 0 mm 2 mps 749 mmHg 90%
    01:00 +16°C° 0 mm 2 mps 749 mmHg 91%
    02:00 +16°C° 0 mm 2 mps 749 mmHg 92%
    03:00 +16°C° 0 mm 1 mps 749 mmHg 93%
    04:00 +16°C° 0 mm 2 mps 749 mmHg 90%
    05:00 +17°C° 0 mm 2 mps 749 mmHg 87%
    06:00 +18°C° 0 mm 2 mps 749 mmHg 84%
    07:00 +20°C° 0 mm 2 mps 749 mmHg 77%
    08:00 +23°C° 0 mm 2 mps 749 mmHg 70%
    09:00 +25°C° 0 mm 3 mps 749 mmHg 63%
    10:00 +26°C° 0 mm 3 mps 749 mmHg 60%
    11:00 +27°C° 0 mm 4 mps 749 mmHg 56%
    12:00 +28°C° 0 mm 4 mps 749 mmHg 53%
    13:00 +29°C° 0 mm 4 mps 749 mmHg 53%
    14:00 +29°C° 0 mm 5 mps 748 mmHg 53%
    15:00 +29°C° 0 mm 5 mps 748 mmHg 53%
    16:00 +29°C° 0 mm 4 mps 748 mmHg 56%
    17:00 +29°C° 0 mm 4 mps 747 mmHg 59%
    18:00 +28°C° 0 mm 4 mps 747 mmHg 62%
    19:00 +27°C° 0 mm 3 mps 747 mmHg 70%
    20:00 +25°C° 0 mm 3 mps 748 mmHg 78%
    21:00 +22°C° 0 mm 3 mps 748 mmHg 86%
    22:00 +21°C° 0 mm 3 mps 748 mmHg 89%
    23:00 +21°C° 0 mm 3 mps 748 mmHg 91%

    Day after tomorrow, 23 June, Saturday

    Time Temperature Precipitation Wind Pressure Humidity
    00:00 +20°C° 0 mm 3 mps 748 mmHg 94%
    01:00 +19°C° 0 mm 2 mps 748 mmHg 95%
    02:00 +19°C° 0 mm 2 mps 748 mmHg 95%
    03:00 +19°C° 0 mm 2 mps 748 mmHg 96%
    04:00 +19°C° 0 mm 2 mps 748 mmHg 93%
    05:00 +20°C° 0 mm 2 mps 748 mmHg 91%
    06:00 +20°C° 0 mm 2 mps 748 mmHg 88%
    07:00 +22°C° 0 mm 3 mps 748 mmHg 81%
    08:00 +25°C° 0 mm 3 mps 748 mmHg 73%
    09:00 +27°C° 0 mm 3 mps 749 mmHg 66%
    10:00 +28°C° 0 mm 4 mps 748 mmHg 61%
    11:00 +29°C° 0 mm 4 mps 748 mmHg 56%
    12:00 +30°C° 0 mm 5 mps 748 mmHg 51%
    13:00 +30°C° 0 mm 5 mps 748 mmHg 50%
    14:00 +30°C° 0 mm 5 mps 747 mmHg 49%
    15:00 +32°C° 0 mm 5 mps 747 mmHg 48%
    16:00 +30°C° 0 mm 5 mps 747 mmHg 50%
    17:00 +30°C° 0 mm 4 mps 747 mmHg 53%
    18:00 +29°C° 0 mm 4 mps 746 mmHg 56%
    19:00 +27°C° 0 mm 3 mps 747 mmHg 63%
    20:00 +26°C° 0 mm 3 mps 747 mmHg 70%
    21:00 +24°C° 0 mm 3 mps 747 mmHg 78%
    22:00 +22°C° 0 mm 3 mps 747 mmHg 78%
    23:00 +22°C° 0 mm 3 mps 747 mmHg 78%

    24 June, Sunday

    Time Temperature Precipitation Wind Pressure Humidity
    00:00 +21°C° 0 mm 4 mps 746 mmHg 78%
    01:00 +21°C° 0 mm 4 mps 746 mmHg 78%
    02:00 +21°C° 0 mm 4 mps 746 mmHg 77%
    03:00 +21°C° 0 mm 4 mps 746 mmHg 76%
    04:00 +21°C° 0 mm 4 mps 746 mmHg 74%
    05:00 +22°C° 0 mm 5 mps 746 mmHg 73%
    06:00 +22°C° 0 mm 5 mps 746 mmHg 72%
    07:00 +23°C° 0 mm 5 mps 746 mmHg 70%
    08:00 +23°C° 0 mm 5 mps 746 mmHg 68%
    09:00 +25°C° 0 mm 5 mps 746 mmHg 66%
    10:00 +25°C° 0.2 mm 5 mps 746 mmHg 66%
    11:00 +24°C° 0.2 mm 6 mps 747 mmHg 66%
    12:00 +26°C° 0.2 mm 6 mps 747 mmHg 66%
    13:00 +24°C° 0.6 mm 6 mps 747 mmHg 71%
    14:00 +23°C° 0.6 mm 5 mps 748 mmHg 76%
    15:00 +23°C° 0.6 mm 5 mps 748 mmHg 81%
    16:00 +22°C° 0.4 mm 4 mps 748 mmHg 82%
    17:00 +21°C° 0.4 mm 4 mps 749 mmHg 82%
    18:00 +21°C° 0.4 mm 4 mps 749 mmHg 82%
    19:00 +19°C° 0.1 mm 3 mps 750 mmHg 84%
    20:00 +18°C° 0.1 mm 2 mps 750 mmHg 85%
    21:00 +17°C° 0.1 mm 2 mps 751 mmHg 87%
    22:00 +16°C° 0 mm 2 mps 751 mmHg 89%
    23:00 +15°C° 0 mm 2 mps 751 mmHg 90%

    25 June, Monday

    Time Temperature Precipitation Wind Pressure Humidity
    00:00 +14°C° 0 mm 1 mps 752 mmHg 92%
    01:00 +14°C° 0 mm 1 mps 752 mmHg 92%
    02:00 +13°C° 0 mm 1 mps 753 mmHg 93%
    03:00 +13°C° 0 mm 1 mps 753 mmHg 93%
    04:00 +13°C° 0 mm 1 mps 753 mmHg 91%
    05:00 +14°C° 0 mm 1 mps 754 mmHg 88%
    06:00 +15°C° 0 mm 1 mps 754 mmHg 85%
    07:00 +18°C° 0 mm 1 mps 754 mmHg 78%
    08:00 +19°C° 0 mm 1 mps 754 mmHg 70%
    09:00 +21°C° 0 mm 1 mps 755 mmHg 62%
    10:00 +22°C° 0 mm 1 mps 755 mmHg 57%
    11:00 +24°C° 0 mm 1 mps 755 mmHg 52%
    12:00 +25°C° 0 mm 1 mps 755 mmHg 47%
    13:00 +26°C° 0 mm 1 mps 755 mmHg 44%
    14:00 +27°C° 0 mm 1 mps 755 mmHg 42%
    15:00 +27°C° 0 mm 1 mps 755 mmHg 39%
    16:00 +27°C° 0 mm 1 mps 755 mmHg 41%
    17:00 +26°C° 0 mm 1 mps 755 mmHg 43%
    18:00 +26°C° 0 mm 1 mps 755 mmHg 44%
    19:00 +24°C° 0 mm 1 mps 755 mmHg 52%
    20:00 +22°C° 0 mm 1 mps 755 mmHg 59%
    21:00 +19°C° 0 mm 1 mps 755 mmHg 66%
    22:00 +18°C° 0 mm 1 mps 755 mmHg 69%
    23:00 +16°C° 0 mm 1 mps 755 mmHg 72%

    26 June, Tuesday

    Time Temperature Precipitation Wind Pressure Humidity
    00:00 +16°C° 0 mm 1 mps 755 mmHg 75%
    01:00 +15°C° 0 mm 1 mps 756 mmHg 77%
    02:00 +15°C° 0 mm 1 mps 756 mmHg 79%
    03:00 +14°C° 0 mm 1 mps 756 mmHg 81%
    04:00 +15°C° 0 mm 1 mps 756 mmHg 79%
    05:00 +16°C° 0 mm 1 mps 756 mmHg 77%
    06:00 +18°C° 0 mm 1 mps 756 mmHg 75%
    07:00 +20°C° 0 mm 1 mps 757 mmHg 68%
    08:00 +22°C° 0 mm 1 mps 757 mmHg 60%
    09:00 +24°C° 0 mm 2 mps 757 mmHg 53%
    10:00 +26°C° 0 mm 2 mps 757 mmHg 48%
    11:00 +27°C° 0 mm 2 mps 756 mmHg 43%
    12:00 +28°C° 0 mm 2 mps 756 mmHg 38%
    13:00 +28°C° 0 mm 2 mps 756 mmHg 36%
    14:00 +29°C° 0 mm 2 mps 756 mmHg 35%
    15:00 +29°C° 0 mm 2 mps 756 mmHg 34%
    16:00 +29°C° 0 mm 2 mps 756 mmHg 37%
    17:00 +29°C° 0 mm 2 mps 756 mmHg 40%
    18:00 +28°C° 0 mm 2 mps 756 mmHg 44%
    19:00 +26°C° 0 mm 2 mps 756 mmHg 51%
    20:00 +24°C° 0 mm 2 mps 756 mmHg 58%
    21:00 +20°C° 0 mm 2 mps 756 mmHg 65%
    22:00 +20°C° 0 mm 2 mps 756 mmHg 67%
    23:00 +19°C° 0 mm 2 mps 756 mmHg 70%
    Show more